Date String (YYYY-MM-DD hh:mm:ss) UTC,Instrument flags,Ambient pressure (hPa),Sample flow (lpm),Bypass flow (lpm),Sample temperature (°C),Ambient temperature (°C),ASC tube jacket temperature (°C),LED temperature (°C),Box temperature (°C),Sample RH (%),Span deviation,Mass concentration (μg/m³),Mass concentration (μg/m³),Mass concentration (μg/m³)
DateTimeUTC,F1_M11,P_M11,Q1_M11,Q2_M11,T1_M11,T2_M11,T3_M11,T4_M11,T5_M11,U1_M11,ZSPAN_M11,X2_M11,X0_M11,X1_M11
2023-05-06 21:00:00,,0825.4,5.00,0.00,28.5,27.2,00.0,36.8,30.1,08.3,0000.0,0002.87,0006.15,0001.63
2023-05-06 21:01:00,,0825.4,5.00,0.00,28.5,27.2,00.0,36.8,30.1,08.4,0000.0,0002.88,0006.21,0001.63
2023-05-06 21:02:00,,0825.4,5.00,0.00,28.5,27.2,00.0,36.8,30.2,08.4,0000.0,0002.86,0006.25,0001.63
2023-05-06 21:03:00,,0825.4,5.00,0.00,28.6,27.2,00.0,36.8,30.2,08.3,0000.0,0002.87,0006.25,0001.62
2023-05-06 21:04:00,,0825.4,5.00,0.00,28.6,27.3,00.0,36.8,30.2,08.2,0000.0,0002.93,0006.36,0001.63
2023-05-06 21:05:00,,0825.4,4.99,0.00,28.6,27.3,00.0,36.9,30.2,08.2,0000.0,0002.91,0006.30,0001.63
2023-05-06 21:06:00,,0825.4,5.01,0.00,28.6,27.3,00.0,36.9,30.2,08.2,0000.0,0002.98,0006.79,0001.62
2023-05-06 21:07:00,,0825.3,5.00,0.00,28.6,27.3,00.0,36.9,30.2,08.2,0000.0,0003.02,0007.63,0001.62
2023-05-06 21:08:00,,0825.3,5.00,0.00,28.6,27.4,00.0,36.9,30.3,08.4,0000.0,0003.03,0007.72,0001.63
2023-05-06 21:09:00,,0825.3,4.98,0.00,28.7,27.4,00.0,36.9,30.3,08.6,0000.0,0003.04,0007.59,0001.64
2023-05-06 21:10:00,,0825.2,5.00,0.00,28.7,27.5,00.0,36.9,30.3,08.5,0000.0,0003.06,0007.79,0001.65
2023-05-06 21:11:00,,0825.2,5.00,0.00,28.7,27.5,00.0,37.0,30.3,08.3,0000.0,0003.05,0007.79,0001.64
2023-05-06 21:12:00,,0825.2,4.99,0.00,28.8,27.6,00.0,37.0,30.3,08.3,0000.0,0003.04,0007.73,0001.65
2023-05-06 21:13:00,,0825.2,5.01,0.00,28.8,27.7,00.0,37.0,30.4,08.4,0000.0,0003.00,0007.71,0001.66
2023-05-06 21:14:00,,0825.2,5.01,0.00,28.8,27.7,00.0,37.0,30.4,08.6,0000.0,0002.99,0007.93,0001.67
2023-05-06 21:15:00,,0825.2,5.01,0.00,28.8,27.7,00.0,37.0,30.5,08.3,0000.0,0002.96,0007.99,0001.67
2023-05-06 21:16:00,,0825.2,5.00,0.00,28.8,27.7,00.0,37.1,30.5,08.4,0000.0,0002.93,0008.00,0001.66
2023-05-06 21:17:00,,0825.2,4.99,0.00,28.9,27.7,00.0,37.1,30.5,08.6,0000.0,0002.89,0007.96,0001.67
2023-05-06 21:18:00,,0825.1,5.00,0.00,28.9,27.7,00.0,37.1,30.5,08.8,0000.0,0002.91,0007.66,0001.68
2023-05-06 21:19:00,,0825.1,5.00,0.00,28.9,27.8,00.0,37.1,30.5,08.9,0000.0,0002.92,0007.65,0001.68
2023-05-06 21:20:00,,0825.1,5.00,0.00,28.9,27.8,00.0,37.2,30.5,08.9,0000.0,0002.96,0007.82,0001.70
2023-05-06 21:21:00,,0825.1,5.00,0.00,28.9,27.8,00.0,37.2,30.5,08.8,0000.0,0002.95,0007.63,0001.70
2023-05-06 21:22:00,,0825.1,5.01,0.00,28.9,27.7,00.0,37.2,30.5,08.7,0000.0,0003.01,0008.26,0001.73
2023-05-06 21:23:00,,0825.1,4.99,0.00,28.9,27.7,00.0,37.2,30.5,08.7,0000.0,0003.07,0008.45,0001.76
2023-05-06 21:24:00,,0825.1,4.99,0.00,28.9,27.7,00.0,37.2,30.5,08.6,0000.0,0003.08,0008.37,0001.75
2023-05-06 21:25:00,,0825.1,5.00,0.00,28.9,27.6,00.0,37.2,30.5,08.6,0000.0,0003.14,0008.24,0001.73
2023-05-06 21:26:00,,0825.1,5.00,0.00,28.9,27.6,00.0,37.2,30.5,08.7,0000.0,0003.13,0008.11,0001.72
2023-05-06 21:27:00,,0825.1,4.99,0.00,28.9,27.6,00.0,37.2,30.5,08.5,0000.0,0003.15,0008.33,0001.74
2023-05-06 21:28:00,,0825.1,4.99,0.00,28.9,27.6,00.0,37.2,30.5,08.6,0000.0,0003.13,0008.05,0001.75
2023-05-06 21:29:00,,0825.1,5.01,0.00,28.9,27.6,00.0,37.2,30.5,08.6,0000.0,0003.12,0007.84,0001.74
2023-05-06 21:30:00,,0825.1,5.01,0.00,28.9,27.6,00.0,37.3,30.5,08.5,0000.0,0003.12,0007.87,0001.73
2023-05-06 21:31:00,,0825.0,5.01,0.00,28.9,27.6,00.0,37.3,30.5,08.4,0000.0,0003.08,0007.47,0001.72
2023-05-06 21:32:00,,0825.0,5.01,0.00,28.9,27.6,00.0,37.3,30.5,08.5,0000.0,0003.03,0007.43,0001.72
2023-05-06 21:33:00,,0825.0,4.98,0.00,28.9,27.6,00.0,37.3,30.5,08.4,0000.0,0002.94,0006.84,0001.70
2023-05-06 21:34:00,,0825.0,5.00,0.00,28.9,27.6,00.0,37.3,30.5,08.7,0000.0,0002.85,0006.25,0001.66
2023-05-06 21:35:00,,0824.9,5.00,0.00,28.9,27.6,00.0,37.3,30.5,09.0,0000.0,0002.84,0007.02,0001.66
2023-05-06 21:36:00,,0825.0,5.00,0.00,28.9,27.6,00.0,37.3,30.5,09.1,0000.0,0002.72,0006.90,0001.67
2023-05-06 21:37:00,,0825.0,5.00,0.00,28.9,27.6,00.0,37.3,30.5,08.8,0000.0,0002.71,0006.93,0001.68
2023-05-06 21:38:00,,0825.0,5.00,0.00,28.9,27.6,00.0,37.3,30.5,08.7,0000.0,0002.64,0006.47,0001.68
2023-05-06 21:39:00,,0825.0,5.00,0.00,28.9,27.6,00.0,37.3,30.5,08.8,0000.0,0002.67,0006.50,0001.68
2023-05-06 21:40:00,,0825.0,5.00,0.00,28.9,27.5,00.0,37.3,30.5,08.5,0000.0,0002.63,0006.31,0001.68
2023-05-06 21:41:00,,0825.0,5.01,0.00,28.9,27.6,00.0,37.3,30.5,08.5,0000.0,0002.58,0007.32,0001.68
2023-05-06 21:42:00,,0825.0,5.01,0.00,28.9,27.6,00.0,37.3,30.5,08.8,0000.0,0002.63,0007.38,0001.68
2023-05-06 21:43:00,,0824.9,5.01,0.00,29.0,27.6,00.0,37.3,30.5,08.7,0000.0,0002.68,0007.39,0001.68
2023-05-06 21:44:00,,0824.9,4.98,0.00,29.0,27.6,00.0,37.3,30.5,08.3,0000.0,0002.75,0007.34,0001.70
2023-05-06 21:45:00,,0825.0,4.99,0.00,29.0,27.6,00.0,37.3,30.5,08.5,0000.0,0002.79,0007.65,0001.71
2023-05-06 21:46:00,,0824.9,5.00,0.00,29.0,27.6,00.0,37.3,30.5,08.4,0000.0,0002.77,0007.61,0001.71
2023-05-06 21:47:00,,0824.9,5.00,0.00,29.0,27.7,00.0,37.4,30.5,08.2,0000.0,0002.75,0007.65,0001.70
2023-05-06 21:48:00,,0824.9,5.00,0.00,29.0,27.7,00.0,37.4,30.6,08.3,0000.0,0002.75,0007.66,0001.69
2023-05-06 21:49:00,,0824.9,5.01,0.00,29.0,27.7,00.0,37.4,30.5,08.3,0000.0,0002.84,0007.81,0001.69
2023-05-06 21:50:00,,0824.9,5.01,0.00,29.0,27.7,00.0,37.4,30.6,08.5,0000.0,0002.85,0007.81,0001.69
2023-05-06 21:51:00,,0824.9,5.00,0.00,29.0,27.7,00.0,37.4,30.6,08.7,0000.0,0002.87,0007.87,0001.69
2023-05-06 21:52:00,,0824.9,4.99,0.00,29.0,27.7,00.0,37.4,30.6,08.7,0000.0,0002.90,0007.51,0001.69
2023-05-06 21:53:00,,0824.9,4.99,0.00,29.0,27.7,00.0,37.4,30.6,08.9,0000.0,0002.91,0008.13,0001.68
2023-05-06 21:54:00,,0824.9,5.00,0.00,29.0,27.7,00.0,37.4,30.6,08.7,0000.0,0002.90,0008.81,0001.69
2023-05-06 21:55:00,,0824.9,5.01,0.00,29.0,27.7,00.0,37.4,30.6,08.9,0000.0,0002.82,0008.94,0001.67
2023-05-06 21:56:00,,0824.8,5.01,0.00,29.0,27.7,00.0,37.4,30.6,08.9,0000.0,0002.82,0008.92,0001.65
2023-05-06 21:57:00,,0824.9,5.01,0.00,29.0,27.8,00.0,37.4,30.6,08.7,0000.0,0002.85,0008.31,0001.65
2023-05-06 21:58:00,,0824.8,5.00,0.00,29.1,27.8,00.0,37.4,30.6,08.7,0000.0,0002.85,0008.14,0001.67
2023-05-06 21:59:00,,0824.8,5.00,0.00,29.1,27.8,00.0,37.4,30.7,09.0,0000.0,0002.91,0008.28,0001.68
